Theta_e
324 323 322 322 320 319 320 320 319 316 314 313 312 313 313 312 311 312 313 313 314 314 314 313 312 312 316 319 317 315 315 316 318 321 324 325 324 324 325 320 318 319 314 312 311 311 312
327 324 323 323 322 321 320 320 320 319 316 314 314 313 313 313 313 312 313 314 314 314 314 313 312 312 317 319 313 314 315 316 317 319 321 323 323 322 321 317 318 315 314 312 311 311 310
325 326 324 323 323 322 322 320 320 320 320 317 315 314 313 313 314 313 313 314 314 315 315 313 311 313 316 315 313 314 315 315 317 319 319 320 319 321 318 315 313 314 314 313 312 311 311
322 325 324 324 323 323 323 322 321 320 320 320 318 316 314 314 314 314 313 314 315 315 315 312 311 312 316 312 313 313 315 315 315 316 316 315 316 316 317 313 314 316 317 320 314 311 308
321 324 325 324 324 323 323 323 322 322 320 320 320 318 315 314 314 314 313 315 315 315 313 311 313 314 316 312 313 312 313 316 315 314 313 313 316 316 315 318 319 318 319 318 317 312 311
323 326 325 325 324 324 324 323 324 323 322 321 320 320 317 315 314 314 314 315 315 314 314 313 312 315 313 315 312 312 313 315 316 316 317 317 318 320 319 319 320 317 316 315 316 314 311
321 323 323 325 324 323 322 321 322 324 323 323 321 320 318 315 314 314 317 317 319 319 316 318 316 315 314 312 311 313 312 314 315 316 319 318 319 321 319 316 314 314 314 315 315 312 311
315 316 316 317 318 317 318 318 319 322 323 323 323 320 319 316 314 315 318 320 318 317 321 315 314 314 313 313 314 313 312 315 316 318 318 319 320 315 313 312 313 314 314 316 313 310 309
313 313 314 314 314 314 315 316 318 322 323 323 323 322 319 315 315 318 319 318 317 317 319 316 315 315 314 313 315 314 313 315 316 318 318 318 316 311 312 314 314 315 314 313 312 311 311
312 312 312 313 313 314 316 320 322 322 321 323 323 323 321 315 317 317 319 316 317 317 319 317 315 315 313 314 315 311 312 315 315 316 316 316 312 312 313 314 312 315 310 310 311 313 318
310 310 310 311 311 313 315 318 321 321 320 321 323 323 322 318 316 319 317 316 318 317 322 315 315 313 314 315 314 313 311 314 316 315 315 315 312 312 314 313 310 313 309 310 312 314 315
308 306 304 308 310 310 312 315 317 318 319 319 323 323 322 323 318 315 315 316 318 321 321 317 315 315 315 315 314 313 314 313 313 314 314 313 308 309 310 308 307 309 311 313 314 316 321
299 298 298 306 310 307 310 313 315 316 317 317 320 322 322 321 318 315 315 319 321 320 316 318 317 315 316 317 315 315 315 315 316 317 317 313 312 307 307 310 309 310 314 322 325 324 322
299 299 300 300 308 308 305 308 314 314 315 317 319 321 323 321 316 314 317 320 321 319 318 317 316 316 318 316 316 315 316 316 315 315 316 317 318 311 307 309 310 312 313 318 321 322 319
302 301 301 301 302 305 304 301 310 314 316 317 320 323 321 316 313 314 320 322 320 320 318 318 316 318 318 316 316 316 317 317 316 315 316 316 316 306 305 305 306 312 315 311 315 315 316
302 302 302 302 303 302 301 300 301 312 316 317 320 323 322 313 313 315 321 321 320 317 317 318 320 319 320 319 317 317 319 316 315 312 313 315 316 309 306 305 306 308 308 315 316 326 322
307 301 302 303 303 301 300 300 300 309 315 316 318 324 314 313 314 318 320 320 320 316 317 318 320 320 320 319 318 319 318 314 313 312 312 314 314 311 308 310 313 309 311 310 312 315 320
308 307 306 304 303 301 299 298 299 307 314 316 321 323 313 313 319 319 320 319 315 318 316 318 317 319 319 319 319 319 319 317 312 312 314 313 315 315 314 307 306 307 311 312 317 323 315
308 308 307 307 304 301 299 297 298 305 313 317 322 322 313 314 324 322 319 318 317 318 318 318 318 318 318 319 320 320 318 311 310 312 314 313 315 316 314 310 307 309 310 309 312 313 319
309 308 308 307 306 303 298 297 297 303 313 315 320 321 318 316 320 321 321 320 318 317 318 318 318 318 318 319 319 320 318 312 310 310 309 309 316 317 319 318 315 313 311 309 311 317 320
309 307 308 307 306 304 299 297 296 302 313 314 319 321 318 321 320 319 320 319 320 319 317 317 317 318 318 318 319 318 318 313 309 312 310 312 317 318 316 315 312 312 313 310 311 313 316
309 308 306 307 307 305 300 298 297 300 312 316 320 319 316 319 316 320 319 319 320 319 319 317 317 318 317 318 319 318 318 318 318 312 312 312 316 314 316 315 313 312 312 312 311 311 312
310 309 306 306 307 305 302 298 298 298 310 316 318 313 316 318 317 318 320 319 319 318 318 317 317 318 318 318 317 317 316 316 317 316 314 315 316 316 318 314 313 316 315 314 313 312 312
311 310 307 306 306 305 303 300 300 298 308 313 317 317 318 321 319 318 316 317 318 318 318 317 315 317 314 311 311 312 312 312 313 313 315 315 316 318 320 318 319 318 311 311 315 314 313
312 310 308 306 306 305 303 304 300 299 299 310 313 315 318 321 319 317 317 316 316 316 317 317 311 309 310 311 316 316 316 314 313 311 310 311 316 327 321 320 319 318 314 310 312 315 312
313 311 309 306 305 305 303 303 301 300 297 304 311 312 316 317 319 316 317 317 317 316 316 313 305 306 309 315 319 323 322 319 318 310 307 309 311 320 319 326 320 316 309 308 309 317 312
314 311 309 307 306 305 304 303 304 301 298 302 305 310 315 318 315 315 316 317 316 317 317 312 307 307 308 319 323 321 321 318 320 317 312 311 314 320 319 324 319 317 308 307 315 318 311
315 313 310 308 306 305 304 303 303 302 300 301 302 308 312 316 315 313 314 315 316 316 319 311 310 309 310 320 321 320 320 319 318 317 315 316 320 318 319 325 319 310 307 313 315 312 310
316 314 311 308 306 305 304 303 303 303 302 301 301 304 308 311 314 311 312 310 308 308 314 312 316 314 314 316 318 318 319 318 319 319 315 317 318 322 320 319 315 310 312 311 308 309 311
Wind_Speed
6 6 6 7 8 9 10 11 13 13 13 13 14 13 13 13 11 9 9 10 9 8 8 7 7 6 4 6 5 8 9 6 2 2 5 6 7 2 3 3 1 5 6 6 6 5 5
7 6 6 6 7 8 9 10 11 12 12 12 12 13 13 13 12 11 10 9 10 9 9 8 5 4 5 6 3 7 8 3 4 3 1 3 3 4 5 3 4 5 7 9 5 5 4
8 8 6 5 6 7 8 10 10 11 12 13 13 12 13 14 14 12 11 10 9 9 8 8 3 2 6 6 2 6 8 7 5 0 4 5 4 2 4 5 5 10 7 6 6 5 2
9 9 7 5 5 6 7 8 9 11 12 13 14 14 14 14 14 14 11 9 9 9 6 3 2 3 3 3 2 2 3 8 12 14 13 9 10 7 2 9 5 5 5 5 8 6 4
7 8 7 6 5 5 6 7 8 10 12 13 14 15 15 15 15 15 11 8 6 2 1 1 3 5 4 4 4 2 1 3 6 7 6 4 2 4 6 5 5 6 5 1 6 7 3
3 6 6 6 7 6 6 8 9 9 10 12 14 15 16 16 16 12 6 3 1 2 2 2 4 5 5 2 4 3 2 3 2 3 4 5 4 5 6 6 5 7 6 0 4 6 6
1 2 4 4 7 9 9 11 11 10 10 11 13 15 16 17 17 8 2 2 5 5 6 4 4 3 4 4 3 2 2 4 4 7 8 2 7 3 7 4 5 5 5 6 3 2 6
2 4 5 6 6 8 10 12 13 12 11 11 13 15 16 17 10 5 3 2 4 3 2 1 1 2 3 2 3 3 2 4 4 7 2 6 5 6 3 2 4 4 6 3 3 1 4
3 6 7 7 8 12 16 17 14 11 11 10 11 14 16 17 2 4 6 3 2 1 5 4 1 3 2 4 2 4 3 2 4 6 5 8 5 3 2 4 7 5 6 4 4 4 10
5 6 6 7 10 7 5 3 4 7 11 11 10 12 14 9 1 2 2 4 3 2 5 6 4 3 4 1 4 1 2 3 4 4 2 3 3 3 4 7 5 9 3 2 4 4 3
9 9 8 7 10 6 5 5 4 6 9 10 9 10 12 9 7 2 2 5 1 3 5 3 5 2 2 4 3 3 2 3 5 2 4 4 2 3 6 3 3 5 3 5 5 7 7
10 10 9 8 10 6 7 6 7 8 9 12 8 8 10 5 4 4 7 6 3 5 2 4 3 5 6 6 4 4 3 1 3 3 3 2 1 1 4 1 1 1 6 7 4 5 5
10 9 8 7 8 9 6 6 6 7 10 13 8 7 7 5 2 6 8 4 5 5 3 5 4 5 7 6 7 6 6 7 5 4 8 5 4 2 1 4 3 4 7 3 4 4 3
12 11 10 9 9 10 9 8 7 8 9 9 8 7 7 6 5 6 5 6 8 3 2 3 2 4 5 6 3 5 4 8 7 6 6 6 5 4 2 2 4 2 4 4 5 3 5
13 12 11 10 10 12 11 9 9 7 7 6 6 4 5 3 3 2 5 9 3 3 3 6 4 5 6 4 3 5 8 8 2 9 5 3 2 3 2 1 2 3 2 3 5 2 4
15 13 12 10 9 9 9 8 8 7 5 4 3 5 5 3 4 6 6 13 3 1 2 4 6 4 3 7 6 6 6 2 3 2 2 3 3 1 2 2 2 3 3 3 4 4 4
17 16 14 12 10 8 7 7 7 5 4 4 3 4 4 4 5 6 10 15 8 4 5 5 4 4 4 3 8 4 0 4 2 4 5 2 2 4 2 6 1 4 3 4 3 3 4
20 17 16 15 13 10 7 7 6 5 3 2 4 4 2 8 6 7 12 9 5 7 6 4 4 5 5 3 5 5 3 1 2 6 5 4 2 4 1 3 2 4 3 4 2 2 2
24 21 19 17 15 13 10 8 7 5 4 3 3 1 1 7 7 11 8 4 4 7 8 6 8 7 4 5 5 7 2 2 2 5 3 5 5 3 5 3 2 5 5 6 1 1 7
28 25 22 21 18 16 12 10 8 7 6 2 2 4 4 6 6 9 14 14 13 9 12 9 6 5 7 7 6 2 5 3 3 3 2 1 3 7 7 6 2 4 7 10 10 5 7
32 30 26 24 22 20 16 12 11 11 10 4 3 3 3 7 11 12 11 3 14 11 10 9 10 14 12 10 11 8 5 5 4 5 4 3 6 9 11 9 6 9 10 12 14 21 12
36 34 31 27 26 24 19 16 14 14 12 4 3 4 2 3 3 12 13 12 15 12 12 12 14 12 17 17 14 7 13 9 9 9 7 5 4 3 11 9 10 12 14 15 19 20 19
41 37 35 33 29 28 23 19 18 19 17 6 6 1 3 4 7 8 13 14 15 14 10 14 9 15 12 13 11 7 5 2 2 6 11 6 5 4 12 0 4 10 19 17 11 11 10
44 41 38 36 34 31 27 23 21 22 22 10 7 5 4 5 8 11 5 9 15 15 15 5 7 11 1 4 6 3 1 3 5 6 7 7 10 3 7 10 11 7 1 3 12 10 12
47 45 42 40 38 34 30 26 24 23 25 14 6 5 4 7 8 13 12 11 7 10 11 10 2 3 5 5 3 4 4 4 8 5 8 6 8 3 5 10 16 17 4 5 5 1 2
51 48 46 43 41 38 34 30 28 25 24 19 15 9 3 4 8 13 11 13 11 9 8 7 1 3 2 3 3 7 7 8 6 5 3 5 6 5 5 4 7 2 4 3 2 6 4
51 50 48 46 43 40 37 33 29 27 24 18 10 17 5 5 7 4 10 10 12 9 7 4 5 5 2 4 6 7 11 7 8 7 7 5 6 9 11 8 10 8 8 5 5 2 2
50 52 51 49 45 43 40 36 32 28 25 20 9 18 9 4 5 4 7 7 6 9 9 5 4 3 3 6 5 8 9 11 14 14 8 10 10 6 7 6 12 9 6 6 2 4 1
53 56 55 53 51 46 43 40 36 30 27 23 8 15 19 2 2 3 9 12 6 4 7 7 4 3 7 5 7 5 6 4 11 11 9 9 9 5 11 8 2 11 7 5 1 1 4
Wind_Direction
304 324 350 7 19 21 18 21 22 20 18 17 13 12 8 4 357 346 332 322 322 324 324 327 328 331 302 226 65 12 6 357 315 228 245 243 254 245 265 87 71 79 113 90 101 114 111
285 294 315 339 359 11 14 15 17 17 16 13 11 5 2 359 353 343 330 317 315 316 316 315 316 323 271 259 57 1 4 357 357 237 179 263 337 47 93 59 356 107 120 122 136 137 140
267 264 274 301 328 348 2 7 9 9 9 8 5 1 357 353 348 340 327 312 307 309 309 304 294 296 255 61 87 38 49 45 24 191 105 97 96 307 133 115 122 139 128 148 171 173 131
263 260 256 271 300 324 340 351 359 0 3 0 359 355 352 348 342 335 322 309 304 306 299 279 276 273 55 133 133 76 53 63 67 88 103 92 97 89 35 117 151 223 216 221 145 182 139
253 244 241 257 273 292 314 328 341 352 354 355 353 350 347 343 336 333 323 309 301 296 219 203 284 265 122 154 165 118 311 100 94 95 91 117 110 110 152 224 198 198 314 276 160 204 150
228 200 220 238 259 284 304 315 320 331 342 349 347 345 344 340 335 333 330 318 235 120 171 201 258 253 167 142 130 147 127 182 275 167 173 220 211 231 221 236 343 343 308 268 312 155 224
212 202 218 221 260 268 280 302 310 312 324 337 343 343 342 339 334 338 8 204 200 184 214 341 30 67 118 109 140 150 160 212 239 242 265 174 266 278 8 355 338 318 303 296 98 112 274
293 286 285 286 290 302 295 293 295 297 307 321 336 341 340 339 337 0 10 336 43 352 249 190 224 126 104 209 191 148 197 224 215 265 264 228 248 51 40 312 290 283 292 310 111 164 254
256 279 281 296 302 302 299 287 283 281 290 304 326 338 342 341 358 41 68 67 326 273 252 122 154 230 115 208 284 138 242 229 259 262 271 292 49 99 278 272 279 247 289 332 317 304 244
260 266 274 272 276 281 288 312 254 277 305 300 314 333 345 351 149 343 95 347 320 246 263 129 156 120 162 236 208 3 343 295 209 291 291 348 81 256 260 280 311 290 70 296 293 291 344
255 267 281 277 288 263 276 258 256 270 302 300 301 324 344 1 319 267 4 333 286 240 275 107 132 62 157 219 121 117 347 239 259 191 240 76 193 247 263 20 337 11 302 280 281 269 298
259 265 267 257 285 292 279 263 260 262 276 292 287 308 338 347 286 305 322 308 223 230 234 132 137 168 183 192 162 134 179 71 345 212 220 55 110 299 4 77 5 24 267 245 251 252 232
255 260 262 248 271 304 319 307 278 274 277 291 287 287 305 306 349 320 318 236 226 249 139 148 176 191 214 182 191 204 195 193 235 227 206 165 172 122 248 250 186 238 271 239 202 211 12
249 256 261 258 250 274 301 315 299 293 292 293 291 284 277 241 276 307 274 230 242 36 194 92 162 186 212 162 209 198 222 240 213 258 297 268 218 188 124 313 340 297 319 308 299 314 342
246 252 257 259 252 262 278 290 298 294 306 306 300 247 231 228 232 224 243 220 280 214 107 164 170 230 182 190 287 216 229 258 18 206 253 281 142 119 34 325 304 111 249 2 295 230 267
234 241 248 252 257 261 269 272 276 295 316 329 320 249 203 215 199 197 231 243 242 64 166 189 233 227 246 166 206 200 189 115 176 205 143 37 259 203 111 243 184 268 348 247 191 303 285
229 228 232 236 247 259 272 272 261 278 304 313 243 222 133 187 183 211 224 226 238 208 235 220 232 215 246 209 239 224 263 131 199 151 198 243 238 121 201 204 171 164 199 214 289 265 302
224 225 226 227 231 242 255 267 262 256 286 225 273 224 128 169 198 220 233 222 17 221 224 247 280 265 249 203 233 245 252 42 147 174 177 167 286 259 31 92 356 301 292 243 254 163 237
220 220 219 222 230 239 243 239 228 223 204 288 239 235 168 208 214 209 219 240 235 225 215 205 232 234 214 225 238 228 213 86 167 207 211 165 200 254 177 178 177 235 205 244 184 215 238
219 219 217 217 222 233 231 232 213 209 194 191 261 211 166 216 268 270 214 227 223 215 243 230 249 220 212 224 227 231 206 141 174 216 15 301 274 259 280 357 88 196 202 215 218 222 251
223 220 217 217 222 228 224 217 203 194 182 157 226 245 5 205 220 229 244 232 221 220 219 225 232 229 222 237 217 221 200 157 181 169 198 241 263 265 270 281 239 261 253 208 211 231 259
225 222 217 216 219 225 219 209 204 187 180 199 208 219 198 318 316 230 219 235 232 230 208 217 232 221 234 241 236 247 221 210 214 179 193 195 259 266 277 267 258 257 260 248 232 252 263
225 224 220 215 217 221 218 210 202 189 173 187 199 231 279 145 208 211 225 237 242 239 223 246 245 239 235 251 267 313 312 315 276 181 194 186 221 244 273 21 274 268 243 235 227 226 242
222 224 221 215 214 215 216 210 208 199 187 177 194 215 214 242 220 224 233 246 248 234 249 216 247 246 154 115 102 104 138 241 208 211 230 212 217 221 274 279 264 269 107 308 234 247 244
219 219 218 215 211 211 211 208 207 208 201 198 177 213 217 248 238 236 237 231 239 246 238 250 181 6 153 159 203 209 210 227 216 209 210 235 208 225 237 250 278 296 221 174 172 31 137
215 215 215 212 209 208 209 209 204 207 207 200 204 185 237 244 241 237 221 223 226 221 202 221 136 184 215 211 207 227 220 225 184 176 218 207 257 235 179 240 258 44 137 168 190 241 136
214 213 209 208 206 207 207 206 206 204 207 195 213 195 188 215 245 226 212 229 220 231 234 154 169 174 242 203 231 231 239 249 220 203 178 185 194 212 225 243 263 288 152 166 239 337 101
225 216 209 207 206 204 204 204 204 201 203 194 221 197 182 215 231 211 246 213 206 225 219 119 146 183 176 205 226 223 243 228 237 248 170 176 174 187 207 220 252 144 126 216 99 123 259
223 218 210 205 203 202 202 202 202 200 196 193 221 199 207 227 325 292 254 261 274 309 256 178 224 146 192 196 216 230 229 247 238 243 183 230 211 197 196 207 155 186 247 230 348 301 300